Location: *
(46.1866°S, 178.5290°W)
Time: 07:34:25
(UTC+00:00)

CENTAUR R/B - Pass Details

Date: 19 May 2021
Orbit: 742 x 1446 km, 63.4° (Epoch: 09 June)

Event Time Altitude Azimuth Distance (km) Brightness Sun altitude
Rises 05:40:03 0° 270° (W) 4,197 7.4 -12.4°
Reaches altitude 10° 05:43:42 10° 256° (WSW) 3,110 6.1 -13.0°
Maximum altitude 05:49:25 24° 205° (SSW) 2,074 4.3 -14.0°
Drops below altitude 10° 05:54:29 10° 152° (SSE) 2,714 4.5 -14.8°
Enters shadow 05:54:57 - 150° (SSE) 2,832 4.5 -14.9°
